Weather Roundup
Issued by NWS Chicago, IL

Home | Current Version | Previous Version | Text Only | Print | Product List | Glossary Off
Versions: 1 2 3 4 5 6 7 8 9 10 11 12 13 14 15 16 17 18 19 20 21 22 23 24 25 26 27 28 29 30 31 32 33 34 35 36 37 38 39 40 41 42 43 44 45 46 47 48 49 50

000
NZUS59 KLOT 201510
HRRLOT

CHICAGO AREA WEATHER ROUNDUP
NATIONAL WEATHER SERVICE CHICAGO/ROMEOVILLE IL
1000 AM CDT MON OCT 20 2014

NOTE: "FAIR" INDICATES FEW OR NO CLOUDS BELOW 12,000 FEET WITH NO
SIGNIFICANT WEATHER AND/OR OBSTRUCTIONS TO VISIBILITY.

* THESE STATIONS ARE NOT UNDER NWS QUALITY CONTROL. THEY ALSO MAY NOT
  REPORT WEATHER SUCH AS PRECIPITATION OR FOG.

ILZ005-006-012>014-019>023-201600-
NORTHEAST ILLINOIS

CITY           SKY/WX    TMP DP  RH WIND       PRES   REMARKS
OHARE          MOSUNNY   54  45  71 NW10      29.84R
MIDWAY         MOSUNNY   57  47  69 W8        29.85R
AURORA         SUNNY     56  45  66 NW13      29.86S
LANSING*       SUNNY     54  47  75 W5        29.84S
JOLIET*        SUNNY     54  45  73 NW9       29.86S
WAUKEGAN       CLOUDY    52  45  77 NW8       29.83R
DUPAGE AIRPORT SUNNY     55  46  71 N10       29.84S
WHEELING       MOSUNNY   56  46  69 NW8       29.85R
MORRIS*        SUNNY     55  48  76 NW7       29.85S
LEWIS AIRPORT* SUNNY     54  44  71 NW6       29.86R
NORTHERLY IS     N/A     55  45  68 W12         N/A
$$

WIZ051-052-058>065-066-070>072-201600-
SOUTHEAST WISCONSIN

CITY           SKY/WX    TMP DP  RH WIND       PRES   REMARKS
MILWAUKEE      PTSUNNY   53  45  74 NW10      29.84R
KENOSHA*       SUNNY     54  46  74 NW7       29.84R
RACINE*        MOSUNNY   57  46  66 NW10      29.84R
BURLINGTON     SUNNY     52  44  75 NW15      29.85R
WAUKESHA       MOSUNNY   48  45  87 NW12      29.86R
WEST BEND      CLOUDY    50  43  76 NW7       29.85R
$$

INZ001>003-010>013-019-020-201600-
NORTHWEST INDIANA

CITY           SKY/WX    TMP DP  RH WIND       PRES   REMARKS
GARY*          MOSUNNY   55  46  71 W9        29.84F
MICHIGAN CITY* NOT AVBL
RENSSELAER*    NOT AVBL
VALPARAISO     SUNNY     55  46  71 W9        29.85S
$$

LMZ740>746-201600-
SOUTHERN LAKE MICHIGAN

STATION/POSITION TIME  SKY/WX   TEMP WIND        PRES    VSBY
                                AIR  DIR/SP/G
                 (UTC)          (F)  (DEG/KT/KT) (MB)    (MI)
HARRISON CRIB    1500            52  280/ 11/ 12   N/A
BURNHAM HARBOR   1500            55  260/  9/ 11   N/A
CALUMET HARBOR   1500            54  270/  4/  8 1009.4R
BURNS HARBOR     NOT AVBL
MICHIGAN CITY    1500            52  220/ 12/ 14   N/A
$$

ABBREVIATIONS USED IN REMARKS
   TC - TEMPERATURE IN CELSIUS
  WCI - WIND CHILL INDEX
   HX - HEAT INDEX
  VSB - VISIBILITY
$$



USA.gov is the U.S. government's official web portal to all federal, state and local government web resources and services.